Time,TemperatureF,DewpointF,PressureIn,WindDirection,WindDirectionDegrees,WindSpeedMPH,WindSpeedGustMPH,Humidity,HourlyPrecipIn,Conditions,Clouds,dailyrainin,SoftwareType,DateUTC
2013-04-09 00:02:00,8.9,6.5,29.53,East,79,1.0,3.0,90,0.00,CLR,,0.00,WeatherDisplay:10.37,2013-04-09 08:02:00,
2013-04-09 00:17:00,8.7,6.4,29.53,East,88,0.0,0.0,90,0.00,CLR,,0.00,WeatherDisplay:10.37,2013-04-09 08:17:00,
2013-04-09 00:32:00,8.7,6.4,29.52,East,88,0.0,0.0,90,0.00,CLR,,0.00,WeatherDisplay:10.37,2013-04-09 08:32:00,
2013-04-09 00:47:00,8.6,6.3,29.51,East,93,1.0,2.0,90,0.00,CLR,,0.00,WeatherDisplay:10.37,2013-04-09 08:47:00,
2013-04-09 01:02:00,8.6,6.2,29.50,East,79,1.0,2.0,90,0.00,CLR,,0.00,WeatherDisplay:10.37,2013-04-09 09:02:00,
2013-04-09 01:17:00,8.5,6.2,29.49,ESE,106,0.0,1.0,90,0.00,CLR,,0.00,WeatherDisplay:10.37,2013-04-09 09:17:00,
2013-04-09 01:32:00,8.5,6.1,29.49,ENE,75,2.0,3.0,90,0.00,CLR,,0.00,WeatherDisplay:10.37,2013-04-09 09:32:00,
2013-04-09 01:47:00,8.4,6.0,29.48,ENE,73,2.0,3.0,90,0.00,CLR,,0.00,WeatherDisplay:10.37,2013-04-09 09:47:00,
2013-04-09 02:02:00,8.3,5.7,29.47,East,86,1.0,3.0,89,0.00,CLR,,0.00,WeatherDisplay:10.37,2013-04-09 10:02:00,
2013-04-09 02:17:00,8.2,5.6,29.47,East,85,2.0,3.0,89,0.00,CLR,,0.00,WeatherDisplay:10.37,2013-04-09 10:17:00,
2013-04-09 02:32:00,8.2,5.6,29.46,ENE,71,1.0,3.0,89,0.00,CLR,,0.00,WeatherDisplay:10.37,2013-04-09 10:32:00,
2013-04-09 02:47:00,8.1,5.5,29.45,East,79,2.0,4.0,89,0.00,CLR,,0.00,WeatherDisplay:10.37,2013-04-09 10:47:00,
2013-04-09 03:03:00,8.0,5.4,29.44,ENE,67,2.0,3.0,89,0.00,CLR,,0.00,WeatherDisplay:10.37,2013-04-09 11:03:00,
2013-04-09 03:17:00,7.8,5.5,29.43,ENE,72,1.0,3.0,90,0.00,CLR,,0.00,WeatherDisplay:10.37,2013-04-09 11:17:00,
2013-04-09 03:32:00,7.8,5.5,29.42,East,82,1.0,3.0,90,0.00,CLR,,0.00,WeatherDisplay:10.37,2013-04-09 11:32:00,
2013-04-09 03:47:00,7.7,5.4,29.41,East,81,1.0,3.0,90,0.00,CLR,,0.00,WeatherDisplay:10.37,2013-04-09 11:47:00,
2013-04-09 04:02:00,7.7,5.6,29.40,East,82,2.0,4.0,91,0.00,CLR,,0.00,WeatherDisplay:10.37,2013-04-09 12:02:00,
2013-04-09 04:17:00,7.7,5.6,29.40,East,83,0.0,4.0,91,0.00,CLR,,0.00,WeatherDisplay:10.37,2013-04-09 12:17:00,
2013-04-09 04:32:00,7.7,5.6,29.39,East,84,2.0,4.0,91,0.00,CLR,,0.00,WeatherDisplay:10.37,2013-04-09 12:32:00,
2013-04-09 04:47:00,7.6,5.3,29.38,East,80,0.0,5.0,90,0.00,CLR,,0.00,WeatherDisplay:10.37,2013-04-09 12:47:00,
2013-04-09 05:02:00,7.5,5.4,29.38,ENE,78,1.0,3.0,91,0.00,CLR,,0.00,WeatherDisplay:10.37,2013-04-09 13:02:00,
2013-04-09 05:17:00,7.4,5.3,29.37,ENE,75,0.0,4.0,91,0.00,CLR,,0.00,WeatherDisplay:10.37,2013-04-09 13:17:00,
2013-04-09 05:32:00,7.4,5.3,29.36,ENE,66,0.0,2.0,91,0.00,CLR,,0.00,WeatherDisplay:10.37,2013-04-09 13:32:00,
2013-04-09 05:47:00,7.4,5.3,29.36,ENE,66,0.0,0.0,91,0.00,CLR,,0.00,WeatherDisplay:10.37,2013-04-09 13:47:00,
2013-04-09 06:02:00,7.4,5.3,29.35,SE,135,1.0,2.0,91,0.00,CLR,,0.00,WeatherDisplay:10.37,2013-04-09 14:02:00,
2013-04-09 06:17:00,7.3,5.2,29.35,East,93,0.0,3.0,91,0.00,CLR,,0.00,WeatherDisplay:10.37,2013-04-09 14:17:00,
2013-04-09 06:32:00,7.2,5.1,29.34,East,98,0.0,3.0,91,0.00,CLR,,0.00,WeatherDisplay:10.37,2013-04-09 14:32:00,
2013-04-09 06:47:00,7.1,5.0,29.33,ESE,113,0.0,2.0,91,0.00,CLR,,0.00,WeatherDisplay:10.37,2013-04-09 14:47:00,
2013-04-09 07:02:00,7.1,4.8,29.33,East,83,0.0,2.0,90,0.00,CLR,,0.00,WeatherDisplay:10.37,2013-04-09 15:02:00,
2013-04-09 07:17:00,7.1,4.8,29.32,East,91,1.0,2.0,90,0.00,CLR,,0.00,WeatherDisplay:10.37,2013-04-09 15:17:00,
2013-04-09 07:32:00,7.1,5.0,29.32,East,88,0.0,1.0,91,0.00,CLR,,0.00,WeatherDisplay:10.37,2013-04-09 15:32:00,
2013-04-09 07:47:00,7.1,4.8,29.32,ENE,72,0.0,0.0,90,0.00,CLR,,0.00,WeatherDisplay:10.37,2013-04-09 15:47:00,
2013-04-09 08:02:00,7.2,5.1,29.31,ENE,72,0.0,0.0,91,0.00,CLR,,0.00,WeatherDisplay:10.37,2013-04-09 16:02:00,
2013-04-09 08:17:00,7.3,5.3,29.31,ENE,72,0.0,0.0,91,0.00,CLR,,0.00,WeatherDisplay:10.37,2013-04-09 16:17:00,
2013-04-09 08:32:00,7.5,5.5,29.30,ENE,72,0.0,0.0,91,0.00,CLR,,0.00,WeatherDisplay:10.37,2013-04-09 16:32:00,
2013-04-09 08:47:00,7.7,5.4,29.30,ENE,72,0.0,0.0,90,0.00,CLR,,0.00,WeatherDisplay:10.37,2013-04-09 16:47:00,
2013-04-09 09:02:00,7.9,5.6,29.29,ENE,72,0.0,0.0,90,0.00,CLR,,0.00,WeatherDisplay:10.37,2013-04-09 17:02:00,
2013-04-09 09:17:00,8.2,5.9,29.28,ENE,72,0.0,0.0,90,0.00,CLR,,0.00,WeatherDisplay:10.37,2013-04-09 17:17:00,
2013-04-09 09:32:00,8.2,5.9,29.28,ENE,72,0.0,0.0,90,0.00,CLR,,0.00,WeatherDisplay:10.37,2013-04-09 17:32:00,
2013-04-09 09:47:00,8.7,6.4,29.28,ENE,72,0.0,0.0,90,0.00,CLR,,0.00,WeatherDisplay:10.37,2013-04-09 17:47:00,
2013-04-09 10:02:00,8.9,6.6,29.27,ENE,72,0.0,0.0,90,0.00,CLR,,0.00,WeatherDisplay:10.37,2013-04-09 18:02:00,
2013-04-09 10:17:00,9.3,7.0,29.27,ENE,72,0.0,0.0,90,0.00,CLR,,0.00,WeatherDisplay:10.37,2013-04-09 18:17:00,
2013-04-09 10:32:00,9.6,7.0,29.27,SE,127,2.0,5.0,89,0.00,CLR,,0.00,WeatherDisplay:10.37,2013-04-09 18:32:00,
2013-04-09 10:47:00,9.7,7.1,29.26,ESE,118,0.0,5.0,89,0.00,CLR,,0.00,WeatherDisplay:10.37,2013-04-09 18:47:00,
2013-04-09 11:02:00,9.8,7.2,29.26,ESE,102,0.0,3.0,89,0.00,CLR,,0.00,WeatherDisplay:10.37,2013-04-09 19:02:00,
2013-04-09 11:17:00,9.9,7.3,29.25,SE,144,0.0,2.0,89,0.00,CLR,,0.00,WeatherDisplay:10.37,2013-04-09 19:17:00,
2013-04-09 11:32:00,10.1,7.2,29.25,SE,144,0.0,0.0,88,0.00,CLR,,0.00,WeatherDisplay:10.37,2013-04-09 19:32:00,
2013-04-09 12:02:00,10.5,7.7,29.24,SE,127,0.0,0.0,88,0.00,CLR,,0.00,WeatherDisplay:10.37,2013-04-09 20:02:00,
2013-04-09 12:17:00,10.5,7.6,29.23,SE,127,0.0,0.0,88,0.00,CLR,,0.00,WeatherDisplay:10.37,2013-04-09 20:17:00,
2013-04-09 12:32:00,10.3,7.2,29.23,WSW,250,3.0,5.0,87,0.00,CLR,,0.00,WeatherDisplay:10.37,2013-04-09 20:32:00,
2013-04-09 12:47:00,10.4,7.3,29.23,SW,220,1.0,5.0,87,0.00,CLR,,0.00,WeatherDisplay:10.37,2013-04-09 20:47:00,
2013-04-09 13:02:00,11.0,7.9,29.23,SSE,165,0.0,5.0,87,0.00,CLR,,0.00,WeatherDisplay:10.37,2013-04-09 21:02:00,
2013-04-09 13:17:00,11.2,8.1,29.22,SSW,201,0.0,6.0,87,0.00,CLR,,0.00,WeatherDisplay:10.37,2013-04-09 21:17:00,
2013-04-09 13:32:00,11.1,8.0,29.21,SW,231,3.0,8.0,87,0.00,CLR,,0.00,WeatherDisplay:10.37,2013-04-09 21:32:00,
2013-04-09 13:47:00,11.0,7.9,29.20,SW,229,3.0,7.0,87,0.00,CLR,,0.00,WeatherDisplay:10.37,2013-04-09 21:47:00,
2013-04-09 14:02:00,11.2,8.1,29.20,West,269,2.0,6.0,87,0.00,CLR,,0.00,WeatherDisplay:10.37,2013-04-09 22:02:00,
2013-04-09 14:17:00,11.4,8.6,29.20,WSW,246,1.0,6.0,88,0.00,CLR,,0.00,WeatherDisplay:10.37,2013-04-09 22:17:00,
2013-04-09 14:32:00,12.0,9.4,29.21,SE,146,0.0,5.0,89,0.00,CLR,,0.00,WeatherDisplay:10.37,2013-04-09 22:32:00,
2013-04-09 14:47:00,12.1,9.0,29.20,SW,232,6.0,9.0,87,0.00,CLR,,0.00,WeatherDisplay:10.37,2013-04-09 22:47:00,
2013-04-09 15:02:00,11.8,8.7,29.21,WSW,248,7.0,10.0,87,0.00,CLR,,0.00,WeatherDisplay:10.37,2013-04-09 23:02:00,
2013-04-09 15:17:00,11.4,8.6,29.21,WSW,245,3.0,10.0,88,0.00,CLR,,0.00,WeatherDisplay:10.37,2013-04-09 23:17:00,
2013-04-09 15:47:00,10.7,8.1,29.22,WSW,248,7.0,14.0,89,0.00,CLR,,0.00,WeatherDisplay:10.37,2013-04-09 23:47:00,
2013-04-09 16:02:00,10.5,8.1,29.23,WSW,243,6.0,14.0,90,0.00,CLR,,0.00,WeatherDisplay:10.37,2013-04-10 00:02:00,
2013-04-09 16:17:00,10.3,8.2,29.23,West,259,8.0,13.0,91,0.00,CLR,,0.00,WeatherDisplay:10.37,2013-04-10 00:17:00,
2013-04-09 16:32:00,10.3,8.4,29.24,WSW,247,8.0,13.0,92,0.00,CLR,,0.00,WeatherDisplay:10.37,2013-04-10 00:32:00,
2013-04-09 16:47:00,10.2,8.3,29.25,WSW,252,7.0,13.0,92,0.00,CLR,,0.00,WeatherDisplay:10.37,2013-04-10 00:47:00,
2013-04-09 17:02:00,9.8,8.2,29.25,WSW,244,9.0,16.0,93,0.00,CLR,,0.00,WeatherDisplay:10.37,2013-04-10 01:02:00,
2013-04-09 17:17:00,9.6,8.0,29.26,WSW,248,6.0,16.0,93,0.00,CLR,,0.00,WeatherDisplay:10.37,2013-04-10 01:17:00,
2013-04-09 17:32:00,9.7,8.1,29.27,WSW,244,6.0,12.0,93,0.00,CLR,,0.00,WeatherDisplay:10.37,2013-04-10 01:32:00,
2013-04-09 18:02:00,9.5,7.6,29.28,WSW,245,2.0,13.0,92,0.00,CLR,,0.00,WeatherDisplay:10.37,2013-04-10 02:02:00,
2013-04-09 18:17:00,9.4,7.6,29.28,WSW,243,3.0,13.0,92,0.00,CLR,,0.00,WeatherDisplay:10.37,2013-04-10 02:17:00,
2013-04-09 18:32:00,9.5,7.6,29.29,SSW,213,5.0,10.0,92,0.00,CLR,,0.00,WeatherDisplay:10.37,2013-04-10 02:32:00,
2013-04-09 18:47:00,9.7,7.8,29.30,WSW,245,0.0,9.0,92,0.00,CLR,,0.00,WeatherDisplay:10.37,2013-04-10 02:47:00,
2013-04-09 19:02:00,9.7,7.9,29.31,WSW,238,0.0,8.0,92,0.00,CLR,,0.00,WeatherDisplay:10.37,2013-04-10 03:02:00,
2013-04-09 19:17:00,9.8,8.0,29.32,WSW,244,0.0,9.0,92,0.00,CLR,,0.00,WeatherDisplay:10.37,2013-04-10 03:17:00,
2013-04-09 19:32:00,9.8,7.9,29.33,SSW,207,5.0,9.0,92,0.00,CLR,,0.00,WeatherDisplay:10.37,2013-04-10 03:32:00,
2013-04-09 19:47:00,9.7,7.8,29.34,SW,234,0.0,7.0,92,0.00,CLR,,0.00,WeatherDisplay:10.37,2013-04-10 03:47:00,
2013-04-09 20:02:00,9.6,7.7,29.35,SW,221,0.0,8.0,92,0.00,CLR,,0.00,WeatherDisplay:10.37,2013-04-10 04:02:00,
2013-04-09 20:17:00,9.5,7.6,29.36,SW,226,2.0,10.0,92,0.00,CLR,,0.00,WeatherDisplay:10.37,2013-04-10 04:17:00,
2013-04-09 20:32:00,9.4,7.6,29.37,SW,226,3.0,12.0,92,0.00,CLR,,0.00,WeatherDisplay:10.37,2013-04-10 04:32:00,
2013-04-09 20:47:00,9.4,7.5,29.38,SW,219,2.0,11.0,92,0.00,CLR,,0.00,WeatherDisplay:10.37,2013-04-10 04:47:00,
2013-04-09 21:02:00,9.3,7.7,29.39,WSW,244,3.0,10.0,93,0.00,CLR,,0.00,WeatherDisplay:10.37,2013-04-10 05:02:00,
2013-04-09 21:17:00,9.2,7.6,29.40,SW,233,7.0,14.0,93,0.00,CLR,,0.00,WeatherDisplay:10.37,2013-04-10 05:17:00,
2013-04-09 21:32:00,9.0,7.4,29.42,SW,234,5.0,13.0,93,0.00,CLR,,0.00,WeatherDisplay:10.37,2013-04-10 05:32:00,
2013-04-09 21:47:00,8.7,6.9,29.42,SW,232,7.0,14.0,92,0.00,CLR,,0.00,WeatherDisplay:10.37,2013-04-10 05:47:00,
2013-04-09 22:02:00,8.7,6.9,29.44,SW,222,2.0,14.0,92,0.00,CLR,,0.00,WeatherDisplay:10.37,2013-04-10 06:02:00,
2013-04-09 22:17:00,8.5,6.7,29.45,WSW,243,3.0,15.0,92,0.00,CLR,,0.00,WeatherDisplay:10.37,2013-04-10 06:17:00,
2013-04-09 22:32:00,8.5,6.4,29.46,WSW,248,0.0,10.0,91,0.00,CLR,,0.00,WeatherDisplay:10.37,2013-04-10 06:32:00,
2013-04-09 22:47:00,8.4,6.4,29.47,SW,228,0.0,10.0,91,0.00,CLR,,0.00,WeatherDisplay:10.37,2013-04-10 06:47:00,
2013-04-09 23:02:00,8.4,6.3,29.48,WSW,250,7.0,14.0,91,0.00,CLR,,0.00,WeatherDisplay:10.37,2013-04-10 07:02:00,
2013-04-09 23:17:00,8.2,5.6,29.49,WSW,253,12.0,21.0,89,0.00,CLR,,0.00,WeatherDisplay:10.37,2013-04-10 07:17:00,
2013-04-09 23:32:00,7.9,4.6,29.50,WSW,254,8.0,19.0,86,0.00,CLR,,0.00,WeatherDisplay:10.37,2013-04-10 07:32:00,
2013-04-09 23:47:00,7.8,4.5,29.51,West,259,7.0,16.0,86,0.00,CLR,,0.00,WeatherDisplay:10.37,2013-04-10 07:47:00,